| time (UTC) | temp F | wind direction | speed MPH | gust MPH | rain 1hr in | rain 24hr in | rain mn in | humidity % | barometer mb |
| 20260504045402 | 50 | 212 | 7.0 | 16.0 | 0.00 | 0.00 | 0.00 | 66 | 1009.8 |
| 20260504044001 | 50 | 275 | 7.0 | 11.0 | 0.00 | 0.00 | 0.00 | 64 | 1009.8 |
| 20260504042902 | 50 | 278 | 4.0 | 11.0 | 0.00 | 0.00 | 0.00 | 64 | 1009.8 |
| 20260504041503 | 50 | 302 | 4.0 | 12.0 | 0.00 | 0.00 | 0.00 | 64 | 1009.5 |
| 20260504040502 | 49 | 224 | 8.0 | 18.0 | 0.00 | 0.00 | 0.00 | 64 | 1009.5 |
| 20260504035002 | 49 | 211 | 5.0 | 11.0 | 0.00 | 0.00 | 0.00 | 64 | 1009.5 |
| 20260504033502 | 50 | 308 | 9.0 | 13.0 | 0.00 | 0.00 | 0.00 | 62 | 1009.5 |
| 20260504032003 | 51 | 260 | 7.0 | 11.0 | 0.00 | 0.00 | 0.00 | 61 | 1009.8 |
| 20260504030502 | 52 | 317 | 6.0 | 17.0 | 0.00 | 0.00 | 0.00 | 57 | 1009.8 |
| 20260504025003 | 52 | 248 | 7.0 | 12.0 | 0.00 | 0.00 | 0.00 | 56 | 1009.8 |
| 20260504024001 | 52 | 304 | 7.0 | 9.0 | 0.00 | 0.00 | 0.00 | 57 | 1009.8 |
| 20260504022402 | 52 | 250 | 9.0 | 17.0 | 0.00 | 0.00 | 0.00 | 56 | 1009.8 |
| 20260504015902 | 51 | 233 | 8.0 | 10.0 | 0.00 | 0.00 | 0.00 | 59 | 1009.8 |
| 20260504014402 | 51 | 223 | 5.0 | 11.0 | 0.00 | 0.00 | 0.00 | 59 | 1009.8 |
| 20260504013002 | 51 | 245 | 5.0 | 6.0 | 0.00 | 0.00 | 0.00 | 60 | 1009.8 |
| 20260504010501 | 54 | 177 | 10.0 | 11.0 | 0.00 | 0.00 | 0.00 | 49 | 1009.8 |
| 20260504005004 | 54 | 271 | 8.0 | 18.0 | 0.00 | 0.00 | 0.00 | 50 | 1009.8 |
| 20260504003502 | 53 | 226 | 7.0 | 14.0 | 0.00 | 0.00 | 0.00 | 51 | 1009.8 |
| 20260504002002 | 53 | 279 | 6.0 | 13.0 | 0.00 | 0.00 | 0.00 | 53 | 1009.8 |
| 20260504001001 | 52 | 264 | 3.0 | 13.0 | 0.00 | 0.00 | 0.00 | 56 | 1009.8 |
| 20260503235502 | 52 | 315 | 6.0 | 8.0 | 0.00 | 0.00 | 0.00 | 56 | 1009.8 |
| 20260503234002 | 53 | 274 | 9.0 | 16.0 | 0.00 | 0.00 | 0.00 | 55 | 1010.2 |
| 20260503232502 | 53 | 290 | 5.0 | 8.0 | 0.00 | 0.00 | 0.00 | 57 | 1010.2 |
| 20260503231002 | 53 | 248 | 6.0 | 12.0 | 0.00 | 0.00 | 0.00 | 58 | 1010.2 |
| 20260503225502 | 53 | 224 | 4.0 | 10.0 | 0.00 | 0.00 | 0.00 | 58 | 1010.2 |
| 20260503224402 | 53 | 239 | 5.0 | 14.0 | 0.00 | 0.00 | 0.00 | 56 | 1010.2 |
| 20260503223003 | 53 | 275 | 10.0 | 17.0 | 0.00 | 0.00 | 0.00 | 57 | 1010.2 |
| 20260503221503 | 52 | 303 | 6.0 | 15.0 | 0.00 | 0.00 | 0.00 | 59 | 1010.5 |
| 20260503220002 | 52 | 263 | 6.0 | 15.0 | 0.00 | 0.00 | 0.00 | 57 | 1010.2 |
| 20260503214502 | 52 | 262 | 10.0 | 17.0 | 0.00 | 0.00 | 0.00 | 57 | 1010.2 |
| 20260503213005 | 53 | 217 | 4.0 | 14.0 | 0.00 | 0.00 | 0.00 | 58 | 1009.8 |
| 20260503211503 | 53 | 251 | 9.0 | 11.0 | 0.00 | 0.00 | 0.00 | 57 | 1009.8 |
| 20260503210002 | 52 | 253 | 7.0 | 13.0 | 0.00 | 0.00 | 0.00 | 60 | 1010.2 |
| 20260503204902 | 52 | 255 | 6.0 | 10.0 | 0.00 | 0.00 | 0.00 | 60 | 1010.2 |
| 20260503203501 | 53 | 273 | 7.0 | 13.0 | 0.00 | 0.00 | 0.00 | 57 | 1010.2 |
| 20260503202402 | 52 | 238 | 14.0 | 18.0 | 0.00 | 0.00 | 0.00 | 56 | 1010.2 |
| 20260503200902 | 54 | 187 | 10.0 | 13.0 | 0.00 | 0.00 | 0.00 | 55 | 1010.5 |
| 20260503195402 | 54 | 270 | 7.0 | 15.0 | 0.00 | 0.00 | 0.00 | 53 | 1010.5 |
| 20260503193902 | 56 | 270 | 8.0 | 16.0 | 0.00 | 0.00 | 0.00 | 50 | 1010.8 |
| 20260503192402 | 54 | 282 | 17.0 | 17.0 | 0.00 | 0.00 | 0.00 | 50 | 1011.2 |
| 20260503190902 | 54 | 216 | 10.0 | 19.0 | 0.00 | 0.00 | 0.00 | 49 | 1011.5 |
| 20260503185502 | 54 | 220 | 7.0 | 17.0 | 0.00 | 0.00 | 0.00 | 48 | 1011.5 |
| 20260503184002 | 56 | 242 | 6.0 | 14.0 | 0.00 | 0.00 | 0.00 | 47 | 1011.5 |
| 20260503182502 | 55 | 215 | 8.0 | 17.0 | 0.00 | 0.00 | 0.00 | 42 | 1011.9 |
| 20260503180902 | 54 | 287 | 10.0 | 16.0 | 0.00 | 0.00 | 0.00 | 39 | 1012.2 |
| 20260503175501 | 55 | 256 | 13.0 | 13.0 | 0.00 | 0.00 | 0.00 | 39 | 1012.2 |
| 20260503174001 | 52 | 305 | 10.0 | 15.0 | 0.00 | 0.00 | 0.00 | 48 | 1012.9 |
| 20260503172502 | 51 | 277 | 6.0 | 14.0 | 0.00 | 0.00 | 0.00 | 57 | 1012.9 |
| 20260503171402 | 51 | 233 | 4.0 | 14.0 | 0.00 | 0.00 | 0.00 | 57 | 1013.2 |
| 20260503150501 | 53 | 277 | 12.0 | 12.0 | 0.00 | 0.00 | 0.00 | 55 | 1013.9 |
| 20260503130502 | 46 | 244 | 7.0 | 13.0 | 0.00 | 0.00 | 0.00 | 74 | 1014.2 |
| 20260503080404 | 32 | 245 | 0.0 | 0.0 | 0.00 | 0.00 | 0.00 | 90 | 1014.6 |
| 20260503072402 | 33 | 322 | 0.0 | 0.0 | 0.00 | 0.00 | 0.00 | 90 | 1014.6 |
| 20260503071002 | 33 | 282 | 0.0 | 1.0 | 0.00 | 0.00 | 0.00 | 90 | 1014.6 |
| 20260503054503 | 33 | 232 | 0.0 | 0.0 | 0.00 | 0.00 | 0.00 | 86 | 1014.9 |
| 20260503053502 | 33 | 237 | 0.0 | 0.0 | 0.00 | 0.00 | 0.00 | 85 | 1014.9 |
| 20260503052002 | 34 | 268 | 0.0 | 0.0 | 0.00 | 0.00 | 0.00 | 83 | 1014.9 |
| 20260503050502 | 34 | 166 | 0.0 | 0.0 | 0.00 | 0.00 | 0.00 | 81 | 1015.2 |